Date String (YYYY-MM-DD hh:mm:ss) UTC,Instrument flags,Ambient pressure (hPa),Sample flow (lpm),Bypass flow (lpm),Sample temperature (°C),Ambient temperature (°C),ASC tube jacket temperature (°C),LED temperature (°C),Box temperature (°C),Sample RH (%),Span deviation,Mass concentration (μg/m³),Mass concentration (μg/m³),Mass concentration (μg/m³)
DateTimeUTC,F1_M11,P_M11,Q1_M11,Q2_M11,T1_M11,T2_M11,T3_M11,T4_M11,T5_M11,U1_M11,ZSPAN_M11,X0_M11,X2_M11,X1_M11
2022-06-15 14:00:00,,0824.4,5.01,0.00,28.2,27.3,00.0,37.0,30.1,14.1,0001.3,0011.47,0004.28,0003.12
2022-06-15 14:01:00,,0824.5,5.00,0.00,28.2,27.3,00.0,37.0,30.1,14.1,-000.0,0011.04,0004.27,0003.10
2022-06-15 14:02:00,,0824.5,5.00,0.00,28.2,27.3,00.0,37.0,30.1,14.0,0000.9,0011.06,0004.26,0003.07
2022-06-15 14:03:00,,0824.5,4.99,0.00,28.2,27.3,00.0,37.1,30.1,14.1,0000.1,0010.64,0004.22,0003.07
2022-06-15 14:04:00,,0824.5,5.00,0.00,28.2,27.3,00.0,37.1,30.1,14.1,-000.1,0010.92,0004.20,0003.07
2022-06-15 14:05:00,,0824.5,5.00,0.00,28.2,27.3,00.0,37.1,30.1,14.1,0000.0,0011.48,0004.19,0003.08
2022-06-15 14:06:00,,0824.4,5.00,0.00,28.2,27.3,00.0,37.1,30.1,14.1,-000.7,0011.07,0004.16,0003.09
2022-06-15 14:07:00,,0824.5,5.02,0.00,28.2,27.3,00.0,37.1,30.1,14.0,-000.7,0010.70,0004.15,0003.11
2022-06-15 14:08:00,,0824.4,4.99,0.00,28.2,27.3,00.0,37.1,30.2,14.0,-000.3,0010.68,0004.13,0003.12
2022-06-15 14:09:00,,0824.4,4.99,0.00,28.2,27.3,00.0,37.1,30.2,14.0,0000.0,0010.63,0004.14,0003.13
2022-06-15 14:10:00,,0824.4,5.01,0.00,28.2,27.3,00.0,37.1,30.2,13.9,0000.0,0010.65,0004.13,0003.12
2022-06-15 14:11:00,,0824.4,5.00,0.00,28.2,27.3,00.0,37.1,30.2,13.8,-000.3,0010.95,0004.15,0003.14
2022-06-15 14:12:00,,0824.4,5.00,0.00,28.2,27.3,00.0,37.1,30.2,13.7,-000.6,0011.02,0004.18,0003.15
2022-06-15 14:13:00,,0824.4,4.99,0.00,28.2,27.4,00.0,37.1,30.2,13.7,-000.1,0011.03,0004.17,0003.16
2022-06-15 14:14:00,,0824.5,5.01,0.00,28.3,27.4,00.0,37.1,30.2,13.7,0000.9,0011.00,0004.19,0003.15
2022-06-15 14:15:00,,0824.4,5.00,0.00,28.3,27.4,00.0,37.1,30.2,13.8,0000.0,0010.69,0004.12,0003.14
2022-06-15 14:16:00,,0824.4,5.01,0.00,28.3,27.4,00.0,37.1,30.2,13.7,0000.0,0009.98,0004.09,0003.13
2022-06-15 14:17:00,,0824.5,5.01,0.00,28.3,27.4,00.0,37.1,30.2,13.9,0000.0,0010.17,0004.11,0003.12
2022-06-15 14:18:00,,0824.4,5.00,0.00,28.3,27.4,00.0,37.1,30.2,14.0,0000.0,0010.07,0004.09,0003.12
2022-06-15 14:19:00,,0824.4,5.00,0.00,28.3,27.4,00.0,37.1,30.2,14.0,0001.2,0010.08,0004.13,0003.12
2022-06-15 14:20:00,,0824.5,4.99,0.00,28.3,27.4,00.0,37.2,30.2,13.9,0002.3,0010.03,0004.12,0003.11
2022-06-15 14:21:00,,0824.6,5.01,0.00,28.3,27.4,00.0,37.2,30.2,14.1,0001.8,0010.01,0004.12,0003.10
2022-06-15 14:22:00,,0824.6,5.00,0.00,28.3,27.4,00.0,37.2,30.2,14.2,0000.7,0009.79,0004.12,0003.08
2022-06-15 14:23:00,,0824.4,5.00,0.00,28.3,27.4,00.0,37.2,30.2,14.2,0001.2,0009.74,0004.12,0003.07
2022-06-15 14:24:00,,0824.4,5.00,0.00,28.3,27.4,00.0,37.2,30.2,14.1,0001.6,0009.73,0004.16,0003.08
2022-06-15 14:25:00,,0824.5,5.00,0.00,28.3,27.5,00.0,37.2,30.3,14.1,0000.4,0009.55,0004.17,0003.09
2022-06-15 14:26:00,,0824.8,5.01,0.00,28.3,27.5,00.0,37.2,30.3,14.2,0002.0,0009.49,0004.22,0003.11
2022-06-15 14:27:00,,0824.8,5.00,0.00,28.4,27.5,00.0,37.2,30.3,14.3,0002.3,0009.81,0004.26,0003.13
2022-06-15 14:28:00,,0824.6,4.99,0.00,28.4,27.5,00.0,37.2,30.3,14.3,0003.0,0009.76,0004.27,0003.13
2022-06-15 14:29:00,,0824.5,4.99,0.00,28.4,27.5,00.0,37.2,30.3,14.4,0003.6,0009.47,0004.25,0003.13
2022-06-15 14:30:00,,0824.5,5.01,0.00,28.4,27.5,00.0,37.2,30.3,14.4,0003.0,0008.94,0004.18,0003.12
2022-06-15 14:31:00,,0824.5,5.01,0.00,28.4,27.5,00.0,37.2,30.3,14.4,0001.7,0008.88,0004.16,0003.12
2022-06-15 14:32:00,,0824.4,4.99,0.00,28.4,27.5,00.0,37.2,30.3,14.2,0001.4,0008.82,0004.13,0003.11
2022-06-15 14:33:00,,0824.4,5.00,0.00,28.4,27.5,00.0,37.3,30.3,14.2,0000.6,0008.96,0004.13,0003.11
2022-06-15 14:34:00,,0824.5,5.00,0.00,28.4,27.6,00.0,37.3,30.4,14.2,0000.0,0009.45,0004.15,0003.11
2022-06-15 14:35:00,,0824.4,5.00,0.00,28.4,27.6,00.0,37.3,30.4,14.3,0000.0,0010.11,0004.14,0003.10
2022-06-15 14:36:00,,0824.4,5.00,0.00,28.4,27.6,00.0,37.3,30.4,14.4,0000.8,0010.05,0004.15,0003.10
2022-06-15 14:37:00,,0824.4,5.00,0.00,28.4,27.6,00.0,37.3,30.4,14.4,0000.0,0010.33,0004.18,0003.08
2022-06-15 14:38:00,,0824.4,5.00,0.00,28.5,27.6,00.0,37.3,30.4,14.7,0000.0,0011.01,0004.18,0003.06
2022-06-15 14:39:00,,0824.4,4.99,0.00,28.5,27.6,00.0,37.3,30.4,14.7,0000.0,0011.04,0004.19,0003.06
2022-06-15 14:40:00,,0824.5,4.99,0.00,28.5,27.6,00.0,37.3,30.4,14.6,0000.0,0011.40,0004.30,0003.05
2022-06-15 14:41:00,,0824.3,5.00,0.00,28.5,27.6,00.0,37.3,30.4,14.6,0000.0,0011.51,0004.33,0003.05
2022-06-15 14:42:00,,0824.5,5.01,0.00,28.5,27.6,00.0,37.3,30.4,14.7,0000.0,0011.59,0004.35,0003.05
2022-06-15 14:43:00,,0824.4,5.00,0.00,28.5,27.7,00.0,37.3,30.5,14.8,0000.0,0011.63,0004.39,0003.07
2022-06-15 14:44:00,,0824.3,5.01,0.00,28.5,27.7,00.0,37.4,30.5,14.4,0000.0,0011.70,0004.33,0003.06
2022-06-15 14:45:00,,0824.4,5.01,0.00,28.5,27.7,00.0,37.4,30.5,12.1,0000.0,0011.43,0004.26,0003.04
2022-06-15 14:46:00,,0824.4,4.99,0.00,28.5,27.7,00.0,37.4,30.5,11.6,0000.0,0010.69,0004.23,0003.04
2022-06-15 14:47:00,,0824.5,5.00,0.00,28.6,27.7,00.0,37.4,30.5,11.1,0000.5,0010.64,0004.21,0003.02
2022-06-15 14:48:00,,0824.4,5.00,0.00,28.6,27.7,00.0,37.4,30.5,11.0,0001.7,0010.11,0004.14,0003.01
2022-06-15 14:49:00,,0824.4,5.00,0.00,28.6,27.7,00.0,37.4,30.5,11.7,0001.3,0009.19,0004.12,0003.01
2022-06-15 14:50:00,,0824.5,5.00,0.00,28.6,27.7,00.0,37.4,30.5,11.9,0000.6,0009.00,0004.05,0002.98
2022-06-15 14:51:00,,0824.4,5.01,0.00,28.6,27.7,00.0,37.4,30.5,11.7,-000.2,0008.69,0003.95,0002.97
2022-06-15 14:52:00,,0824.4,5.00,0.00,28.6,27.8,00.0,37.4,30.6,11.5,0000.1,0008.63,0003.91,0002.97
2022-06-15 14:53:00,,0824.3,5.00,0.00,28.6,27.8,00.0,37.4,30.6,11.4,0000.4,0008.70,0003.90,0002.98
2022-06-15 14:54:00,,0824.2,5.00,0.00,28.6,27.8,00.0,37.5,30.6,10.6,0000.2,0008.66,0003.86,0002.97
2022-06-15 14:55:00,,0824.2,4.99,0.00,28.7,27.8,00.0,37.5,30.6,09.1,0000.1,0008.81,0003.95,0002.96
2022-06-15 14:56:00,,0824.2,4.99,0.00,28.7,27.8,00.0,37.5,30.6,08.4,0000.5,0009.28,0003.94,0002.94
2022-06-15 14:57:00,,0824.1,5.01,0.00,28.7,27.7,00.0,37.5,30.6,07.4,0001.6,0009.84,0003.89,0002.90
2022-06-15 14:58:00,,0824.3,5.00,0.00,28.7,27.7,00.0,37.5,30.6,07.7,0001.9,0010.23,0003.82,0002.86
2022-06-15 14:59:00,,0824.2,5.01,0.00,28.7,27.7,00.0,37.5,30.6,07.4,0002.0,0012.00,0003.87,0002.83
